Time,TemperatureF,DewpointF,PressureIn,WindDirection,WindDirectionDegrees,WindSpeedMPH,WindSpeedGustMPH,Humidity,HourlyPrecipIn,Conditions,Clouds,dailyrainin,SoftwareType,DateUTC
2013-01-29 00:01:00,61.0,58.0,30.03,South,180,11.0,14.0,90,0.00,,---,0.00,VWS V14.00,2013-01-29 06:01:00,
2013-01-29 00:06:00,61.0,58.0,30.03,South,180,13.0,13.0,90,0.00,,---,0.00,VWS V14.00,2013-01-29 06:06:00,
2013-01-29 00:11:00,61.0,58.0,30.03,SSE,158,13.0,14.0,90,0.00,,---,0.00,VWS V14.00,2013-01-29 06:11:00,
2013-01-29 00:16:00,61.0,58.0,30.03,South,180,16.0,16.0,90,0.00,,---,0.00,VWS V14.00,2013-01-29 06:16:00,
2013-01-29 00:21:00,61.0,58.4,30.03,South,180,12.0,14.0,91,0.00,,---,0.00,VWS V14.00,2013-01-29 06:21:00,
2013-01-29 00:26:00,61.0,58.0,30.03,SSE,158,11.0,14.0,90,0.00,,---,0.00,VWS V14.00,2013-01-29 06:26:00,
2013-01-29 00:31:00,61.0,58.4,30.03,South,180,11.0,13.0,91,0.00,,---,0.00,VWS V14.00,2013-01-29 06:31:00,
2013-01-29 00:36:00,61.0,58.4,30.02,SSE,158,10.0,11.0,91,0.00,,---,0.00,VWS V14.00,2013-01-29 06:36:00,
2013-01-29 00:41:00,61.0,58.4,30.02,SSE,158,10.0,14.0,91,0.00,,---,0.00,VWS V14.00,2013-01-29 06:41:00,
2013-01-29 00:46:00,61.0,58.4,30.01,South,180,10.0,13.0,91,0.00,,---,0.00,VWS V14.00,2013-01-29 06:46:00,
2013-01-29 00:51:00,61.0,58.4,30.01,South,180,11.0,16.0,91,0.00,,---,0.00,VWS V14.00,2013-01-29 06:51:00,
2013-01-29 00:56:00,61.0,58.7,30.01,South,180,11.0,13.0,92,0.00,,---,0.00,VWS V14.00,2013-01-29 06:56:00,
2013-01-29 01:01:00,61.0,58.7,30.01,SSE,158,11.0,13.0,92,0.00,,---,0.00,VWS V14.00,2013-01-29 07:01:00,
2013-01-29 01:06:00,60.0,57.7,30.01,SSE,158,8.0,13.0,92,0.00,,---,0.00,VWS V14.00,2013-01-29 07:06:00,
2013-01-29 01:11:00,60.0,57.7,30.01,SSE,158,10.0,11.0,92,0.00,,---,0.00,VWS V14.00,2013-01-29 07:11:00,
2013-01-29 01:16:00,60.0,57.7,30.01,SSE,158,10.0,11.0,92,0.00,,---,0.00,VWS V14.00,2013-01-29 07:16:00,
2013-01-29 01:21:00,61.0,58.7,30.00,South,180,7.0,10.0,92,0.00,,---,0.00,VWS V14.00,2013-01-29 07:21:00,
2013-01-29 01:26:00,61.0,58.7,30.00,South,180,11.0,13.0,92,0.00,,---,0.00,VWS V14.00,2013-01-29 07:26:00,
2013-01-29 01:31:00,61.0,58.7,30.00,SSE,158,10.0,14.0,92,0.00,,---,0.00,VWS V14.00,2013-01-29 07:31:00,
2013-01-29 01:36:00,61.0,58.7,30.00,SSE,158,10.0,14.0,92,0.00,,---,0.00,VWS V14.00,2013-01-29 07:36:00,
2013-01-29 01:41:00,61.0,58.7,29.99,South,180,11.0,18.0,92,0.00,,---,0.00,VWS V14.00,2013-01-29 07:41:00,
2013-01-29 01:46:00,61.0,58.7,29.99,South,180,16.0,18.0,92,0.00,,---,0.00,VWS V14.00,2013-01-29 07:46:00,
2013-01-29 01:51:00,61.0,58.7,29.99,South,180,16.0,19.0,92,0.00,,---,0.00,VWS V14.00,2013-01-29 07:51:00,
2013-01-29 01:56:00,61.0,58.7,29.99,South,180,19.0,19.0,92,0.00,,---,0.00,VWS V14.00,2013-01-29 07:56:00,
2013-01-29 02:01:00,61.0,58.7,29.99,SSW,202,13.0,16.0,92,0.00,,---,0.00,VWS V14.00,2013-01-29 08:01:00,
2013-01-29 02:06:00,61.0,58.7,29.99,SSE,158,16.0,16.0,92,0.00,,---,0.00,VWS V14.00,2013-01-29 08:06:00,
2013-01-29 02:11:00,61.0,58.7,29.99,South,180,15.0,16.0,92,0.00,,---,0.00,VWS V14.00,2013-01-29 08:11:00,
2013-01-29 02:16:00,61.0,58.7,29.99,South,180,13.0,15.0,92,0.00,,---,0.00,VWS V14.00,2013-01-29 08:16:00,
2013-01-29 02:21:00,61.0,59.0,29.99,SSW,202,13.0,19.0,93,0.00,,---,0.00,VWS V14.00,2013-01-29 08:21:00,
2013-01-29 02:26:00,61.0,58.7,29.99,South,180,10.0,13.0,92,0.00,,---,0.00,VWS V14.00,2013-01-29 08:26:00,
2013-01-29 02:31:00,61.0,59.0,29.99,SSE,158,11.0,13.0,93,0.00,,---,0.00,VWS V14.00,2013-01-29 08:31:00,
2013-01-29 02:36:00,61.0,59.0,29.98,SSE,158,16.0,18.0,93,0.00,,---,0.00,VWS V14.00,2013-01-29 08:36:00,
2013-01-29 02:41:00,61.0,59.0,29.98,South,180,16.0,16.0,93,0.00,,---,0.00,VWS V14.00,2013-01-29 08:41:00,
2013-01-29 02:46:00,61.0,59.0,29.98,South,180,13.0,14.0,93,0.00,,---,0.00,VWS V14.00,2013-01-29 08:46:00,
2013-01-29 02:51:00,61.0,59.0,29.97,South,180,11.0,13.0,93,0.00,,---,0.00,VWS V14.00,2013-01-29 08:51:00,
2013-01-29 02:56:00,61.0,59.3,29.97,South,180,11.0,13.0,94,0.00,,---,0.00,VWS V14.00,2013-01-29 08:56:00,
2013-01-29 03:01:00,61.0,59.3,29.97,SSE,158,14.0,17.0,94,0.00,,---,0.00,VWS V14.00,2013-01-29 09:01:00,
2013-01-29 03:06:00,61.0,59.3,29.97,SSE,158,11.0,16.0,94,0.00,,---,0.00,VWS V14.00,2013-01-29 09:06:00,
2013-01-29 03:11:00,61.0,59.3,29.97,SSE,158,13.0,16.0,94,0.00,,---,0.00,VWS V14.00,2013-01-29 09:11:00,
2013-01-29 03:16:00,61.0,59.3,29.96,SSE,158,12.0,13.0,94,0.00,,---,0.00,VWS V14.00,2013-01-29 09:16:00,
2013-01-29 03:21:00,62.0,60.0,29.97,SSE,158,18.0,19.0,93,0.00,,---,0.00,VWS V14.00,2013-01-29 09:21:00,
2013-01-29 03:26:00,62.0,60.0,29.97,South,180,11.0,16.0,93,0.00,,---,0.00,VWS V14.00,2013-01-29 09:26:00,
2013-01-29 03:31:00,62.0,60.0,29.96,South,180,18.0,21.0,93,0.00,,---,0.00,VWS V14.00,2013-01-29 09:31:00,
2013-01-29 03:36:00,62.0,60.0,29.96,South,180,13.0,13.0,93,0.00,,---,0.00,VWS V14.00,2013-01-29 09:36:00,
2013-01-29 03:41:00,62.0,60.0,29.97,SSW,202,13.0,15.0,93,0.00,,---,0.00,VWS V14.00,2013-01-29 09:41:00,
2013-01-29 03:46:00,62.0,60.0,29.97,South,180,16.0,16.0,93,0.00,,---,0.00,VWS V14.00,2013-01-29 09:46:00,
2013-01-29 03:51:00,62.0,60.0,29.96,SSE,158,11.0,15.0,93,0.00,,---,0.00,VWS V14.00,2013-01-29 09:51:00,
2013-01-29 03:56:00,62.0,60.0,29.96,South,180,13.0,16.0,93,0.00,,---,0.00,VWS V14.00,2013-01-29 09:56:00,
2013-01-29 04:01:00,63.0,60.6,29.96,SSW,202,18.0,19.0,92,0.00,,---,0.00,VWS V14.00,2013-01-29 10:01:00,
2013-01-29 04:06:00,63.0,60.6,29.96,South,180,11.0,13.0,92,0.00,,---,0.00,VWS V14.00,2013-01-29 10:06:00,
2013-01-29 04:11:00,63.0,60.6,29.97,South,180,13.0,14.0,92,0.00,,---,0.00,VWS V14.00,2013-01-29 10:11:00,
2013-01-29 04:16:00,63.0,60.6,29.97,SSE,158,9.0,13.0,92,0.00,,---,0.00,VWS V14.00,2013-01-29 10:16:00,
2013-01-29 04:21:00,63.0,60.6,29.96,South,180,19.0,24.0,92,0.00,,---,0.00,VWS V14.00,2013-01-29 10:21:00,
2013-01-29 04:26:00,63.0,60.6,29.97,South,180,12.0,15.0,92,0.00,,---,0.00,VWS V14.00,2013-01-29 10:26:00,
2013-01-29 04:31:00,63.0,60.6,29.97,SSE,158,14.0,17.0,92,0.00,,---,0.00,VWS V14.00,2013-01-29 10:31:00,
2013-01-29 04:36:00,63.0,60.6,29.97,South,180,12.0,13.0,92,0.00,,---,0.00,VWS V14.00,2013-01-29 10:36:00,
2013-01-29 04:41:00,63.0,60.6,29.96,SSE,158,11.0,15.0,92,0.00,,---,0.00,VWS V14.00,2013-01-29 10:41:00,
2013-01-29 04:46:00,63.0,60.6,29.97,South,180,16.0,19.0,92,0.00,,---,0.00,VWS V14.00,2013-01-29 10:46:00,
2013-01-29 04:51:00,63.0,60.6,29.96,South,180,16.0,19.0,92,0.00,,---,0.00,VWS V14.00,2013-01-29 10:51:00,
2013-01-29 04:56:00,63.0,60.3,29.96,South,180,14.0,18.0,91,0.00,,---,0.00,VWS V14.00,2013-01-29 10:56:00,
2013-01-29 05:01:00,63.0,60.3,29.96,South,180,16.0,19.0,91,0.00,,---,0.00,VWS V14.00,2013-01-29 11:01:00,
2013-01-29 05:06:00,63.0,60.3,29.96,SSE,158,14.0,18.0,91,0.00,,---,0.00,VWS V14.00,2013-01-29 11:06:00,
2013-01-29 05:11:00,63.0,60.6,29.96,SSE,158,13.0,16.0,92,0.00,,---,0.00,VWS V14.00,2013-01-29 11:11:00,
2013-01-29 05:16:00,62.0,59.7,29.96,South,180,13.0,16.0,92,0.00,,---,0.00,VWS V14.00,2013-01-29 11:16:00,
2013-01-29 05:21:00,62.0,59.7,29.96,South,180,18.0,21.0,92,0.00,,---,0.00,VWS V14.00,2013-01-29 11:21:00,
2013-01-29 05:26:00,62.0,59.7,29.95,SSE,158,12.0,14.0,92,0.00,,---,0.00,VWS V14.00,2013-01-29 11:26:00,
2013-01-29 05:31:00,62.0,60.0,29.95,South,180,13.0,14.0,93,0.00,,---,0.00,VWS V14.00,2013-01-29 11:31:00,
2013-01-29 05:36:00,62.0,60.0,29.95,SSE,158,12.0,14.0,93,0.00,,---,0.00,VWS V14.00,2013-01-29 11:36:00,
2013-01-29 05:41:00,62.0,60.0,29.96,SSE,158,14.0,18.0,93,0.00,,---,0.00,VWS V14.00,2013-01-29 11:41:00,
2013-01-29 05:46:00,62.0,60.0,29.96,South,180,12.0,14.0,93,0.00,,---,0.00,VWS V14.00,2013-01-29 11:46:00,
2013-01-29 05:51:00,62.0,60.0,29.95,South,180,18.0,19.0,93,0.00,,---,0.00,VWS V14.00,2013-01-29 11:51:00,
2013-01-29 05:56:00,62.0,60.0,29.95,SSW,202,13.0,14.0,93,0.00,,---,0.00,VWS V14.00,2013-01-29 11:56:00,
2013-01-29 06:01:00,62.0,60.0,29.95,South,180,14.0,16.0,93,0.00,,---,0.00,VWS V14.00,2013-01-29 12:01:00,
2013-01-29 06:06:00,62.0,60.0,29.95,South,180,12.0,15.0,93,0.00,,---,0.00,VWS V14.00,2013-01-29 12:06:00,
2013-01-29 06:11:00,62.0,60.0,29.95,SSE,158,13.0,15.0,93,0.00,,---,0.00,VWS V14.00,2013-01-29 12:11:00,
2013-01-29 06:16:00,62.0,60.0,29.95,South,180,11.0,14.0,93,0.00,,---,0.00,VWS V14.00,2013-01-29 12:16:00,
2013-01-29 06:21:00,62.0,60.0,29.95,South,180,13.0,15.0,93,0.00,,---,0.00,VWS V14.00,2013-01-29 12:21:00,
2013-01-29 06:26:00,62.0,60.3,29.95,South,180,13.0,14.0,94,0.00,,---,0.00,VWS V14.00,2013-01-29 12:26:00,
2013-01-29 06:31:00,62.0,60.3,29.95,SSE,158,13.0,14.0,94,0.00,,---,0.00,VWS V14.00,2013-01-29 12:31:00,
2013-01-29 06:36:00,62.0,60.3,29.95,SSE,158,13.0,14.0,94,0.00,,---,0.00,VWS V14.00,2013-01-29 12:36:00,
2013-01-29 06:41:00,62.0,60.3,29.95,SSE,158,16.0,16.0,94,0.00,,---,0.00,VWS V14.00,2013-01-29 12:41:00,
2013-01-29 06:46:00,62.0,60.3,29.95,SSE,158,13.0,18.0,94,0.00,,---,0.00,VWS V14.00,2013-01-29 12:46:00,
2013-01-29 06:51:00,62.0,60.3,29.95,South,180,13.0,14.0,94,0.00,,---,0.00,VWS V14.00,2013-01-29 12:51:00,
2013-01-29 06:56:00,62.0,60.3,29.95,South,180,14.0,16.0,94,0.00,,---,0.00,VWS V14.00,2013-01-29 12:56:00,
2013-01-29 07:01:00,62.0,60.3,29.95,SSW,202,10.0,11.0,94,0.00,,---,0.00,VWS V14.00,2013-01-29 13:01:00,
2013-01-29 07:06:00,62.0,60.3,29.95,SSW,202,16.0,19.0,94,0.00,,---,0.00,VWS V14.00,2013-01-29 13:06:00,
2013-01-29 07:11:00,62.0,60.3,29.95,South,180,11.0,14.0,94,0.00,,---,0.00,VWS V14.00,2013-01-29 13:11:00,
2013-01-29 07:16:00,62.0,60.3,29.94,South,180,13.0,13.0,94,0.00,,---,0.00,VWS V14.00,2013-01-29 13:16:00,
2013-01-29 07:21:00,62.0,60.3,29.95,SSE,158,14.0,14.0,94,0.00,,---,0.00,VWS V14.00,2013-01-29 13:21:00,
2013-01-29 07:26:00,62.0,60.3,29.95,South,180,15.0,17.0,94,0.00,,---,0.00,VWS V14.00,2013-01-29 13:26:00,
2013-01-29 07:31:00,62.0,60.6,29.95,South,180,18.0,18.0,95,0.00,,---,0.00,VWS V14.00,2013-01-29 13:31:00,
2013-01-29 07:36:00,63.0,61.2,29.95,South,180,11.0,13.0,94,0.00,,---,0.00,VWS V14.00,2013-01-29 13:36:00,
2013-01-29 07:41:00,62.0,60.6,29.95,South,180,11.0,11.0,95,0.00,,---,0.00,VWS V14.00,2013-01-29 13:41:00,
2013-01-29 07:46:00,62.0,60.6,29.95,SSW,202,13.0,13.0,95,0.00,,---,0.00,VWS V14.00,2013-01-29 13:46:00,
2013-01-29 07:51:00,62.0,60.6,29.95,SSE,158,17.0,17.0,95,0.00,,---,0.00,VWS V14.00,2013-01-29 13:51:00,
2013-01-29 07:56:00,63.0,61.5,29.95,South,180,12.0,16.0,95,0.00,,---,0.00,VWS V14.00,2013-01-29 13:56:00,
2013-01-29 08:01:00,63.0,61.5,29.95,SSW,202,11.0,19.0,95,0.00,,---,0.00,VWS V14.00,2013-01-29 14:01:00,
2013-01-29 08:06:00,63.0,61.5,29.94,South,180,11.0,14.0,95,0.00,,---,0.00,VWS V14.00,2013-01-29 14:06:00,
2013-01-29 08:11:00,63.0,61.5,29.94,South,180,11.0,13.0,95,0.00,,---,0.00,VWS V14.00,2013-01-29 14:11:00,
2013-01-29 08:16:00,63.0,61.5,29.94,South,180,13.0,13.0,95,0.00,,---,0.00,VWS V14.00,2013-01-29 14:16:00,
2013-01-29 08:21:00,63.0,61.5,29.94,South,180,13.0,13.0,95,0.00,,---,0.00,VWS V14.00,2013-01-29 14:21:00,
2013-01-29 08:26:00,63.0,61.5,29.93,South,180,18.0,18.0,95,0.00,,---,0.00,VWS V14.00,2013-01-29 14:26:00,
2013-01-29 08:31:00,63.0,61.8,29.93,South,180,16.0,18.0,96,0.00,,---,0.00,VWS V14.00,2013-01-29 14:31:00,
2013-01-29 08:36:00,62.0,60.8,29.93,South,180,17.0,21.0,96,0.00,,---,0.00,VWS V14.00,2013-01-29 14:36:00,
2013-01-29 08:41:00,63.0,61.8,29.93,SSE,158,18.0,19.0,96,0.00,,---,0.00,VWS V14.00,2013-01-29 14:41:00,
2013-01-29 08:46:00,63.0,61.8,29.93,SSW,202,19.0,20.0,96,0.00,,---,0.00,VWS V14.00,2013-01-29 14:46:00,
2013-01-29 08:51:00,63.0,61.5,29.92,SSW,202,20.0,20.0,95,0.00,,---,0.00,VWS V14.00,2013-01-29 14:51:00,
2013-01-29 08:56:00,63.0,61.5,29.92,South,180,13.0,13.0,95,0.00,,---,0.00,VWS V14.00,2013-01-29 14:56:00,
2013-01-29 09:01:00,63.0,61.5,29.92,SSE,158,11.0,12.0,95,0.00,,---,0.00,VWS V14.00,2013-01-29 15:01:00,
2013-01-29 09:06:00,63.0,61.5,29.92,SSW,202,21.0,22.0,95,0.00,,---,0.00,VWS V14.00,2013-01-29 15:06:00,
2013-01-29 09:11:00,63.0,61.2,29.92,South,180,11.0,12.0,94,0.00,,---,0.00,VWS V14.00,2013-01-29 15:11:00,
2013-01-29 09:16:00,63.0,61.2,29.92,South,180,19.0,20.0,94,0.00,,---,0.00,VWS V14.00,2013-01-29 15:16:00,
2013-01-29 09:21:00,63.0,61.0,29.92,South,180,11.0,11.0,93,0.00,,---,0.00,VWS V14.00,2013-01-29 15:21:00,
2013-01-29 09:26:00,64.0,62.2,29.91,SE,135,16.0,16.0,94,0.00,,---,0.00,VWS V14.00,2013-01-29 15:26:00,
2013-01-29 09:31:00,64.0,61.9,29.91,South,180,15.0,23.0,93,0.00,,---,0.00,VWS V14.00,2013-01-29 15:31:00,
2013-01-29 09:36:00,64.0,61.6,29.91,South,180,15.0,15.0,92,0.00,,---,0.00,VWS V14.00,2013-01-29 15:36:00,
2013-01-29 09:41:00,64.0,61.3,29.91,SSE,158,15.0,15.0,91,0.00,,---,0.00,VWS V14.00,2013-01-29 15:41:00,
2013-01-29 09:46:00,64.0,61.3,29.91,SSW,202,11.0,12.0,91,0.00,,---,0.00,VWS V14.00,2013-01-29 15:46:00,
2013-01-29 09:51:00,64.0,61.0,29.90,SSW,202,13.0,14.0,90,0.00,,---,0.00,VWS V14.00,2013-01-29 15:51:00,
2013-01-29 09:56:00,65.0,62.0,29.91,South,180,12.0,17.0,90,0.00,,---,0.00,VWS V14.00,2013-01-29 15:56:00,
2013-01-29 10:01:00,65.0,62.0,29.91,South,180,16.0,17.0,90,0.00,,---,0.00,VWS V14.00,2013-01-29 16:01:00,
2013-01-29 10:06:00,65.0,61.4,29.90,South,180,12.0,15.0,88,0.00,,---,0.00,VWS V14.00,2013-01-29 16:06:00,
2013-01-29 10:11:00,65.0,61.4,29.90,SSE,158,14.0,18.0,88,0.00,,---,0.00,VWS V14.00,2013-01-29 16:11:00,
2013-01-29 10:16:00,65.0,61.4,29.90,SSE,158,12.0,14.0,88,0.00,,---,0.00,VWS V14.00,2013-01-29 16:16:00,
2013-01-29 10:21:00,65.0,61.4,29.90,South,180,13.0,16.0,88,0.00,,---,0.00,VWS V14.00,2013-01-29 16:21:00,
2013-01-29 10:26:00,65.0,61.0,29.90,SSE,158,17.0,21.0,87,0.00,,---,0.00,VWS V14.00,2013-01-29 16:26:00,
2013-01-29 10:31:00,66.0,62.0,29.90,SSE,158,12.0,14.0,87,0.00,,---,0.00,VWS V14.00,2013-01-29 16:31:00,
2013-01-29 10:36:00,66.0,61.7,29.90,SSW,202,16.0,16.0,86,0.00,,---,0.00,VWS V14.00,2013-01-29 16:36:00,
2013-01-29 10:41:00,66.0,61.7,29.89,South,180,13.0,14.0,86,0.00,,---,0.00,VWS V14.00,2013-01-29 16:41:00,
2013-01-29 10:46:00,66.0,61.7,29.89,SSE,158,18.0,18.0,86,0.00,,---,0.00,VWS V14.00,2013-01-29 16:46:00,
2013-01-29 10:51:00,66.0,61.7,29.89,South,180,14.0,15.0,86,0.00,,---,0.00,VWS V14.00,2013-01-29 16:51:00,
2013-01-29 10:56:00,66.0,61.7,29.88,South,180,19.0,19.0,86,0.00,,---,0.00,VWS V14.00,2013-01-29 16:56:00,
2013-01-29 11:01:00,66.0,61.4,29.88,SE,135,18.0,18.0,85,0.00,,---,0.00,VWS V14.00,2013-01-29 17:01:00,
2013-01-29 11:06:00,66.0,61.4,29.87,SSW,202,21.0,23.0,85,0.00,,---,0.00,VWS V14.00,2013-01-29 17:06:00,
2013-01-29 11:11:00,66.0,61.4,29.88,SSW,202,13.0,16.0,85,0.00,,---,0.00,VWS V14.00,2013-01-29 17:11:00,
2013-01-29 11:16:00,66.0,61.4,29.87,SSE,158,17.0,18.0,85,0.00,,---,0.00,VWS V14.00,2013-01-29 17:16:00,
2013-01-29 11:21:00,67.0,62.0,29.87,SSW,202,16.0,16.0,84,0.00,,---,0.00,VWS V14.00,2013-01-29 17:21:00,
2013-01-29 11:26:00,67.0,62.0,29.87,South,180,19.0,19.0,84,0.00,,---,0.00,VWS V14.00,2013-01-29 17:26:00,
2013-01-29 11:31:00,67.0,62.0,29.86,SSW,202,14.0,18.0,84,0.00,,---,0.00,VWS V14.00,2013-01-29 17:31:00,
2013-01-29 11:36:00,67.0,61.7,29.86,SSE,158,18.0,18.0,83,0.00,,---,0.00,VWS V14.00,2013-01-29 17:36:00,
2013-01-29 11:41:00,67.0,61.7,29.85,SSE,158,16.0,16.0,83,0.00,,---,0.00,VWS V14.00,2013-01-29 17:41:00,
2013-01-29 11:46:00,67.0,61.7,29.85,SSE,158,16.0,16.0,83,0.00,,---,0.00,VWS V14.00,2013-01-29 17:46:00,
2013-01-29 11:51:00,67.0,62.0,29.85,South,180,18.0,18.0,84,0.00,,---,0.00,VWS V14.00,2013-01-29 17:51:00,
2013-01-29 11:56:00,67.0,62.0,29.84,SSE,158,14.0,17.0,84,0.00,,---,0.00,VWS V14.00,2013-01-29 17:56:00,
2013-01-29 12:01:00,67.0,62.0,29.84,South,180,13.0,13.0,84,0.00,,---,0.00,VWS V14.00,2013-01-29 18:01:00,
2013-01-29 12:06:00,67.0,62.3,29.83,SSE,158,14.0,14.0,85,0.00,,---,0.00,VWS V14.00,2013-01-29 18:06:00,
2013-01-29 12:11:00,67.0,62.0,29.82,SSE,158,19.0,20.0,84,0.00,,---,0.00,VWS V14.00,2013-01-29 18:11:00,
2013-01-29 12:16:00,67.0,62.0,29.82,SSE,158,18.0,18.0,84,0.00,,---,0.00,VWS V14.00,2013-01-29 18:16:00,
2013-01-29 12:21:00,68.0,63.0,29.81,SSE,158,19.0,19.0,84,0.00,,---,0.00,VWS V14.00,2013-01-29 18:21:00,
2013-01-29 12:26:00,67.0,61.7,29.81,SSW,202,10.0,19.0,83,0.00,,---,0.00,VWS V14.00,2013-01-29 18:26:00,
2013-01-29 12:31:00,67.0,61.7,29.81,SSE,158,18.0,21.0,83,0.00,,---,0.00,VWS V14.00,2013-01-29 18:31:00,
2013-01-29 12:36:00,67.0,61.7,29.80,SSE,158,14.0,19.0,83,0.00,,---,0.00,VWS V14.00,2013-01-29 18:36:00,
2013-01-29 12:41:00,67.0,61.7,29.80,SSE,158,14.0,21.0,83,0.00,,---,0.00,VWS V14.00,2013-01-29 18:41:00,
2013-01-29 12:46:00,67.0,61.7,29.80,South,180,16.0,23.0,83,0.00,,---,0.00,VWS V14.00,2013-01-29 18:46:00,
2013-01-29 12:51:00,68.0,62.7,29.80,South,180,11.0,20.0,83,0.00,,---,0.00,VWS V14.00,2013-01-29 18:51:00,
2013-01-29 12:56:00,68.0,62.3,29.79,SSE,158,16.0,21.0,82,0.00,,---,0.00,VWS V14.00,2013-01-29 18:56:00,
2013-01-29 13:01:00,68.0,62.0,29.78,South,180,14.0,16.0,81,0.00,,---,0.00,VWS V14.00,2013-01-29 19:01:00,
2013-01-29 13:06:00,68.0,62.0,29.78,South,180,10.0,17.0,81,0.00,,---,0.00,VWS V14.00,2013-01-29 19:06:00,
2013-01-29 13:11:00,68.0,62.0,29.78,South,180,16.0,20.0,81,0.00,,---,0.00,VWS V14.00,2013-01-29 19:11:00,
2013-01-29 13:16:00,68.0,62.0,29.77,SSE,158,14.0,20.0,81,0.00,,---,0.00,VWS V14.00,2013-01-29 19:16:00,
2013-01-29 13:21:00,68.0,61.6,29.76,South,180,18.0,25.0,80,0.00,,---,0.00,VWS V14.00,2013-01-29 19:21:00,
2013-01-29 13:26:00,68.0,62.0,29.76,South,180,18.0,21.0,81,0.00,,---,0.00,VWS V14.00,2013-01-29 19:26:00,
2013-01-29 13:31:00,69.0,62.6,29.75,South,180,21.0,23.0,80,0.00,,---,0.00,VWS V14.00,2013-01-29 19:31:00,
2013-01-29 13:36:00,69.0,62.6,29.75,SSE,158,14.0,18.0,80,0.00,,---,0.00,VWS V14.00,2013-01-29 19:36:00,
2013-01-29 13:41:00,69.0,62.6,29.75,SSE,158,14.0,17.0,80,0.00,,---,0.00,VWS V14.00,2013-01-29 19:41:00,
2013-01-29 13:46:00,69.0,62.2,29.75,South,180,21.0,25.0,79,0.00,,---,0.00,VWS V14.00,2013-01-29 19:46:00,
2013-01-29 13:51:00,69.0,62.2,29.75,SSE,158,13.0,23.0,79,0.00,,---,0.00,VWS V14.00,2013-01-29 19:51:00,
2013-01-29 13:56:00,69.0,61.9,29.75,SSE,158,23.0,25.0,78,0.00,,---,0.00,VWS V14.00,2013-01-29 19:56:00,
2013-01-29 13:58:00,69.0,61.9,29.75,South,180,18.0,21.0,78,0.00,,---,0.00,VWS V14.00,2013-01-29 19:58:00,
2013-01-29 14:03:00,69.0,61.9,29.75,SSE,158,11.0,20.0,78,0.00,,---,0.00,VWS V14.00,2013-01-29 20:03:00,
2013-01-29 14:08:00,69.0,61.5,29.74,South,180,18.0,26.0,77,0.00,,---,0.00,VWS V14.00,2013-01-29 20:08:00,
2013-01-29 14:13:00,69.0,61.9,29.74,SSE,158,14.0,19.0,78,0.00,,---,0.00,VWS V14.00,2013-01-29 20:13:00,
2013-01-29 14:18:00,69.0,61.9,29.73,South,180,25.0,27.0,78,0.00,,---,0.00,VWS V14.00,2013-01-29 20:18:00,
2013-01-29 14:23:00,69.0,61.5,29.73,South,180,13.0,22.0,77,0.00,,---,0.00,VWS V14.00,2013-01-29 20:23:00,
2013-01-29 14:28:00,69.0,61.5,29.73,South,180,24.0,24.0,77,0.00,,---,0.00,VWS V14.00,2013-01-29 20:28:00,
2013-01-29 14:33:00,69.0,61.1,29.72,SSE,158,27.0,34.0,76,0.00,,---,0.00,VWS V14.00,2013-01-29 20:33:00,
2013-01-29 14:38:00,69.0,61.5,29.72,SSE,158,19.0,27.0,77,0.00,,---,0.00,VWS V14.00,2013-01-29 20:38:00,
2013-01-29 14:43:00,69.0,61.5,29.71,SSE,158,21.0,26.0,77,0.00,,---,0.00,VWS V14.00,2013-01-29 20:43:00,
2013-01-29 14:48:00,69.0,61.5,29.72,SSE,158,19.0,23.0,77,0.00,,---,0.00,VWS V14.00,2013-01-29 20:48:00,
2013-01-29 14:53:00,69.0,61.9,29.72,SSW,202,21.0,26.0,78,0.00,,---,0.00,VWS V14.00,2013-01-29 20:53:00,
2013-01-29 14:58:00,69.0,61.5,29.71,SSE,158,15.0,23.0,77,0.00,,---,0.00,VWS V14.00,2013-01-29 20:58:00,
2013-01-29 15:03:00,69.0,61.5,29.71,SSE,158,20.0,26.0,77,0.00,,---,0.00,VWS V14.00,2013-01-29 21:03:00,
2013-01-29 15:08:00,69.0,61.5,29.70,South,180,18.0,28.0,77,0.00,,---,0.00,VWS V14.00,2013-01-29 21:08:00,
2013-01-29 15:13:00,69.0,61.5,29.71,South,180,21.0,26.0,77,0.00,,---,0.00,VWS V14.00,2013-01-29 21:13:00,
2013-01-29 15:18:00,70.0,62.8,29.71,South,180,21.0,21.0,78,0.00,,---,0.00,VWS V14.00,2013-01-29 21:18:00,
2013-01-29 15:23:00,70.0,62.1,29.71,South,180,18.0,24.0,76,0.00,,---,0.00,VWS V14.00,2013-01-29 21:23:00,
2013-01-29 15:28:00,70.0,62.1,29.70,SSW,202,15.0,23.0,76,0.00,,---,0.00,VWS V14.00,2013-01-29 21:28:00,
2013-01-29 15:33:00,70.0,62.1,29.70,South,180,18.0,18.0,76,0.00,,---,0.00,VWS V14.00,2013-01-29 21:33:00,
2013-01-29 15:38:00,70.0,61.7,29.70,South,180,19.0,26.0,75,0.00,,---,0.00,VWS V14.00,2013-01-29 21:38:00,
2013-01-29 15:43:00,70.0,62.1,29.69,South,180,18.0,26.0,76,0.00,,---,0.00,VWS V14.00,2013-01-29 21:43:00,
2013-01-29 15:48:00,70.0,61.7,29.69,SSE,158,21.0,26.0,75,0.00,,---,0.00,VWS V14.00,2013-01-29 21:48:00,
2013-01-29 15:53:00,70.0,62.1,29.69,South,180,20.0,23.0,76,0.00,,---,0.00,VWS V14.00,2013-01-29 21:53:00,
2013-01-29 15:58:00,70.0,62.1,29.69,SSE,158,17.0,20.0,76,0.00,,---,0.00,VWS V14.00,2013-01-29 21:58:00,
2013-01-29 16:03:00,69.0,61.1,29.69,South,180,16.0,27.0,76,0.00,,---,0.00,VWS V14.00,2013-01-29 22:03:00,
2013-01-29 16:08:00,69.0,61.1,29.69,South,180,16.0,24.0,76,0.00,,---,0.00,VWS V14.00,2013-01-29 22:08:00,
2013-01-29 16:13:00,69.0,61.5,29.69,SSE,158,18.0,20.0,77,0.00,,---,0.00,VWS V14.00,2013-01-29 22:13:00,
2013-01-29 16:18:00,69.0,61.5,29.69,South,180,18.0,23.0,77,0.00,,---,0.00,VWS V14.00,2013-01-29 22:18:00,
2013-01-29 16:23:00,69.0,61.5,29.69,SE,135,18.0,24.0,77,0.00,,---,0.00,VWS V14.00,2013-01-29 22:23:00,
2013-01-29 16:28:00,69.0,61.5,29.69,SSE,158,13.0,22.0,77,0.00,,---,0.00,VWS V14.00,2013-01-29 22:28:00,
2013-01-29 16:33:00,69.0,61.5,29.69,South,180,12.0,14.0,77,0.00,,---,0.00,VWS V14.00,2013-01-29 22:33:00,
2013-01-29 16:38:00,69.0,61.9,29.69,SSE,158,10.0,15.0,78,0.00,,---,0.00,VWS V14.00,2013-01-29 22:38:00,
2013-01-29 16:43:00,69.0,62.2,29.69,SSE,158,15.0,15.0,79,0.00,,---,0.00,VWS V14.00,2013-01-29 22:43:00,
2013-01-29 16:48:00,68.0,61.6,29.68,SSE,158,13.0,14.0,80,0.00,,---,0.00,VWS V14.00,2013-01-29 22:48:00,
2013-01-29 16:53:00,68.0,62.0,29.67,SE,135,18.0,21.0,81,0.00,,---,0.00,VWS V14.00,2013-01-29 22:53:00,
2013-01-29 16:58:00,68.0,62.0,29.67,SSE,158,19.0,20.0,81,0.00,,---,0.00,VWS V14.00,2013-01-29 22:58:00,
2013-01-29 17:03:00,68.0,62.0,29.67,SSE,158,15.0,21.0,81,0.00,,---,0.00,VWS V14.00,2013-01-29 23:03:00,
2013-01-29 17:08:00,68.0,62.0,29.67,SSE,158,14.0,18.0,81,0.00,,---,0.00,VWS V14.00,2013-01-29 23:08:00,
2013-01-29 17:13:00,68.0,62.3,29.67,SSE,158,16.0,18.0,82,0.00,,---,0.00,VWS V14.00,2013-01-29 23:13:00,
2013-01-29 17:18:00,67.0,61.3,29.67,SSE,158,14.0,18.0,82,0.00,,---,0.00,VWS V14.00,2013-01-29 23:18:00,
2013-01-29 17:23:00,67.0,61.3,29.68,SSE,158,13.0,19.0,82,0.00,,---,0.00,VWS V14.00,2013-01-29 23:23:00,
2013-01-29 17:28:00,67.0,61.7,29.68,SSE,158,18.0,18.0,83,0.00,,---,0.00,VWS V14.00,2013-01-29 23:28:00,
2013-01-29 17:33:00,67.0,61.7,29.67,SE,135,16.0,19.0,83,0.00,,---,0.00,VWS V14.00,2013-01-29 23:33:00,
2013-01-29 17:38:00,67.0,61.7,29.66,SSE,158,13.0,16.0,83,0.00,,---,0.00,VWS V14.00,2013-01-29 23:38:00,
2013-01-29 17:43:00,67.0,62.0,29.65,SE,135,16.0,20.0,84,0.00,,---,0.00,VWS V14.00,2013-01-29 23:43:00,
2013-01-29 17:48:00,66.0,61.0,29.64,SSE,158,16.0,19.0,84,0.00,,---,0.00,VWS V14.00,2013-01-29 23:48:00,
2013-01-29 17:53:00,66.0,61.4,29.64,SE,135,16.0,18.0,85,0.00,,---,0.00,VWS V14.00,2013-01-29 23:53:00,
2013-01-29 17:58:00,67.0,62.3,29.63,SE,135,18.0,18.0,85,0.00,,---,0.00,VWS V14.00,2013-01-29 23:58:00,
2013-01-29 18:03:00,67.0,62.0,29.63,SSE,158,19.0,23.0,84,0.00,,---,0.00,VWS V14.00,2013-01-30 00:03:00,
2013-01-29 18:08:00,67.0,62.0,29.63,SSE,158,15.0,18.0,84,0.00,,---,0.00,VWS V14.00,2013-01-30 00:08:00,
2013-01-29 18:13:00,67.0,62.0,29.63,SSE,158,19.0,26.0,84,0.00,,---,0.00,VWS V14.00,2013-01-30 00:13:00,
2013-01-29 18:18:00,67.0,62.0,29.61,SSE,158,19.0,24.0,84,0.00,,---,0.00,VWS V14.00,2013-01-30 00:18:00,
2013-01-29 18:23:00,68.0,62.7,29.61,SSE,158,17.0,22.0,83,0.00,,---,0.00,VWS V14.00,2013-01-30 00:23:00,
2013-01-29 18:28:00,68.0,62.7,29.60,ESE,112,16.0,26.0,83,0.00,,---,0.00,VWS V14.00,2013-01-30 00:28:00,
2013-01-29 18:33:00,68.0,62.7,29.60,SSE,158,19.0,22.0,83,0.00,,---,0.00,VWS V14.00,2013-01-30 00:33:00,
2013-01-29 18:38:00,68.0,62.7,29.60,SE,135,22.0,28.0,83,0.00,,---,0.00,VWS V14.00,2013-01-30 00:38:00,
2013-01-29 18:43:00,68.0,62.7,29.59,SSE,158,25.0,25.0,83,0.00,,---,0.00,VWS V14.00,2013-01-30 00:43:00,
2013-01-29 18:48:00,68.0,62.7,29.59,SE,135,19.0,27.0,83,0.00,,---,0.00,VWS V14.00,2013-01-30 00:48:00,
2013-01-29 18:53:00,68.0,62.7,29.59,SE,135,28.0,31.0,83,0.00,,---,0.00,VWS V14.00,2013-01-30 00:53:00,
2013-01-29 18:58:00,68.0,62.7,29.59,SSE,158,24.0,24.0,83,0.00,,---,0.00,VWS V14.00,2013-01-30 00:58:00,
2013-01-29 19:03:00,68.0,62.7,29.58,SSE,158,18.0,23.0,83,0.00,,---,0.00,VWS V14.00,2013-01-30 01:03:00,
2013-01-29 19:08:00,68.0,62.7,29.58,SE,135,13.0,15.0,83,0.00,,---,0.00,VWS V14.00,2013-01-30 01:08:00,
2013-01-29 19:13:00,68.0,62.7,29.57,SE,135,22.0,24.0,83,0.00,,---,0.00,VWS V14.00,2013-01-30 01:13:00,
2013-01-29 19:18:00,68.0,62.7,29.56,SSE,158,12.0,18.0,83,0.00,,---,0.00,VWS V14.00,2013-01-30 01:18:00,
2013-01-29 19:23:00,68.0,63.0,29.55,SSE,158,21.0,25.0,84,0.00,,---,0.00,VWS V14.00,2013-01-30 01:23:00,
2013-01-29 19:28:00,68.0,62.7,29.55,SSE,158,19.0,26.0,83,0.00,,---,0.00,VWS V14.00,2013-01-30 01:28:00,
2013-01-29 19:33:00,69.0,63.6,29.55,SSE,158,23.0,32.0,83,0.00,,---,0.00,VWS V14.00,2013-01-30 01:33:00,
2013-01-29 19:38:00,69.0,63.6,29.54,SE,135,25.0,29.0,83,0.00,,---,0.00,VWS V14.00,2013-01-30 01:38:00,
2013-01-29 19:43:00,69.0,63.3,29.55,SE,135,21.0,27.0,82,0.00,,---,0.00,VWS V14.00,2013-01-30 01:43:00,
2013-01-29 19:48:00,69.0,63.3,29.54,SSE,158,25.0,25.0,82,0.00,,---,0.00,VWS V14.00,2013-01-30 01:48:00,
2013-01-29 19:53:00,69.0,63.3,29.54,SE,135,25.0,26.0,82,0.00,,---,0.00,VWS V14.00,2013-01-30 01:53:00,
2013-01-29 19:58:00,69.0,63.3,29.53,SSE,158,26.0,28.0,82,0.00,,---,0.00,VWS V14.00,2013-01-30 01:58:00,
2013-01-29 20:03:00,69.0,63.3,29.53,SSE,158,18.0,29.0,82,0.00,,---,0.00,VWS V14.00,2013-01-30 02:03:00,
2013-01-29 20:08:00,69.0,62.9,29.52,SE,135,19.0,24.0,81,0.00,,---,0.00,VWS V14.00,2013-01-30 02:08:00,
2013-01-29 20:13:00,69.0,62.9,29.52,SSE,158,24.0,25.0,81,0.00,,---,0.00,VWS V14.00,2013-01-30 02:13:00,
2013-01-29 20:18:00,69.0,62.9,29.51,SE,135,21.0,21.0,81,0.00,,---,0.00,VWS V14.00,2013-01-30 02:18:00,
2013-01-29 20:23:00,70.0,63.5,29.51,SSE,158,23.0,26.0,80,0.00,,---,0.00,VWS V14.00,2013-01-30 02:23:00,
2013-01-29 20:28:00,70.0,63.5,29.50,SSE,158,27.0,28.0,80,0.00,,---,0.00,VWS V14.00,2013-01-30 02:28:00,
2013-01-29 20:33:00,70.0,63.5,29.50,SSE,158,26.0,26.0,80,0.00,,---,0.00,VWS V14.00,2013-01-30 02:33:00,
2013-01-29 20:38:00,70.0,63.5,29.49,SSE,158,18.0,29.0,80,0.00,,---,0.00,VWS V14.00,2013-01-30 02:38:00,
2013-01-29 20:43:00,70.0,63.5,29.49,SSE,158,20.0,24.0,80,0.00,,---,0.00,VWS V14.00,2013-01-30 02:43:00,
2013-01-29 20:48:00,70.0,63.5,29.48,SSE,158,19.0,25.0,80,0.00,,---,0.00,VWS V14.00,2013-01-30 02:48:00,
2013-01-29 20:53:00,71.0,64.2,29.48,SE,135,24.0,28.0,79,0.00,,---,0.00,VWS V14.00,2013-01-30 02:53:00,
2013-01-29 20:58:00,71.0,64.2,29.48,SSE,158,26.0,28.0,79,0.00,,---,0.00,VWS V14.00,2013-01-30 02:58:00,
2013-01-29 21:03:00,71.0,64.2,29.47,SSE,158,27.0,27.0,79,0.00,,---,0.00,VWS V14.00,2013-01-30 03:03:00,
2013-01-29 21:08:00,71.0,64.2,29.46,South,180,50.0,50.0,79,0.00,,---,0.00,VWS V14.00,2013-01-30 03:08:00,
2013-01-29 21:13:00,71.0,63.8,29.44,SSE,158,28.0,37.0,78,0.00,,---,0.00,VWS V14.00,2013-01-30 03:13:00,
2013-01-29 21:18:00,71.0,63.8,29.45,SE,135,30.0,31.0,78,0.00,,---,0.00,VWS V14.00,2013-01-30 03:18:00,
2013-01-29 21:23:00,71.0,63.8,29.45,SSE,158,26.0,34.0,78,0.00,,---,0.00,VWS V14.00,2013-01-30 03:23:00,
2013-01-29 21:28:00,72.0,64.8,29.45,South,180,29.0,36.0,78,0.00,,---,0.00,VWS V14.00,2013-01-30 03:28:00,
2013-01-29 21:33:00,71.0,63.8,29.45,SSE,158,25.0,31.0,78,0.00,,---,0.00,VWS V14.00,2013-01-30 03:33:00,
2013-01-29 21:38:00,72.0,64.8,29.44,SSE,158,23.0,34.0,78,0.00,,---,0.00,VWS V14.00,2013-01-30 03:38:00,
2013-01-29 21:43:00,71.0,63.8,29.43,SSE,158,21.0,27.0,78,0.00,,---,0.00,VWS V14.00,2013-01-30 03:43:00,
2013-01-29 21:48:00,71.0,63.8,29.43,SE,135,27.0,32.0,78,0.00,,---,0.00,VWS V14.00,2013-01-30 03:48:00,
2013-01-29 21:53:00,72.0,64.8,29.44,SSE,158,24.0,28.0,78,0.00,,---,0.00,VWS V14.00,2013-01-30 03:53:00,
2013-01-29 21:58:00,72.0,64.4,29.44,South,180,27.0,36.0,77,0.00,,---,0.00,VWS V14.00,2013-01-30 03:58:00,
2013-01-29 22:03:00,72.0,64.8,29.43,SSE,158,23.0,23.0,78,0.00,,---,0.00,VWS V14.00,2013-01-30 04:03:00,
2013-01-29 22:08:00,72.0,64.4,29.44,SSE,158,26.0,37.0,77,0.00,,---,0.00,VWS V14.00,2013-01-30 04:08:00,
2013-01-29 22:13:00,72.0,64.4,29.44,South,180,18.0,25.0,77,0.00,,---,0.00,VWS V14.00,2013-01-30 04:13:00,
2013-01-29 22:18:00,72.0,64.4,29.44,SSE,158,14.0,20.0,77,0.00,,---,0.00,VWS V14.00,2013-01-30 04:18:00,
2013-01-29 22:23:00,71.0,63.8,29.44,SSE,158,20.0,20.0,78,0.00,,---,0.00,VWS V14.00,2013-01-30 04:23:00,
2013-01-29 22:28:00,71.0,64.2,29.44,South,180,18.0,18.0,79,0.00,,---,0.00,VWS V14.00,2013-01-30 04:28:00,
2013-01-29 22:33:00,71.0,64.5,29.45,SSE,158,14.0,19.0,80,0.00,,---,0.00,VWS V14.00,2013-01-30 04:33:00,
2013-01-29 22:38:00,71.0,64.5,29.48,SW,225,14.0,14.0,80,0.00,,---,0.00,VWS V14.00,2013-01-30 04:38:00,
2013-01-29 22:43:00,71.0,64.9,29.52,WNW,292,23.0,23.0,81,0.01,,---,0.01,VWS V14.00,2013-01-30 04:43:00,
2013-01-29 22:48:00,57.0,52.2,29.52,WNW,292,26.0,28.0,84,0.09,,---,0.09,VWS V14.00,2013-01-30 04:48:00,
2013-01-29 22:53:00,56.0,53.4,29.52,WNW,292,28.0,28.0,91,0.22,,---,0.22,VWS V14.00,2013-01-30 04:53:00,
2013-01-29 22:58:00,55.0,53.3,29.55,WNW,292,18.0,24.0,94,0.30,,---,0.30,VWS V14.00,2013-01-30 04:58:00,
2013-01-29 23:01:00,55.0,53.3,29.56,WNW,292,16.0,23.0,94,0.33,,---,0.33,VWS V14.00,2013-01-30 05:01:00,
2013-01-29 23:03:00,55.0,53.6,29.54,NW,315,14.0,19.0,95,0.34,,---,0.34,VWS V14.00,2013-01-30 05:03:00,
2013-01-29 23:08:00,55.0,53.9,29.55,NW,315,11.0,23.0,96,0.40,,---,0.40,VWS V14.00,2013-01-30 05:08:00,
2013-01-29 23:13:00,55.0,54.2,29.53,NE,45,9.0,21.0,97,0.42,,---,0.42,VWS V14.00,2013-01-30 05:13:00,
2013-01-29 23:18:00,55.0,54.2,29.52,NNW,338,6.0,19.0,97,0.45,,---,0.45,VWS V14.00,2013-01-30 05:18:00,
2013-01-29 23:23:00,54.0,53.2,29.52,NNW,338,15.0,23.0,97,0.48,,---,0.48,VWS V14.00,2013-01-30 05:23:00,
2013-01-29 23:28:00,54.0,53.5,29.53,NNW,338,14.0,19.0,98,0.52,,---,0.52,VWS V14.00,2013-01-30 05:28:00,
2013-01-29 23:33:00,54.0,53.5,29.56,NW,315,8.0,11.0,98,0.56,,---,0.56,VWS V14.00,2013-01-30 05:33:00,
2013-01-29 23:38:00,54.0,53.5,29.55,NW,315,12.0,12.0,98,0.62,,---,0.62,VWS V14.00,2013-01-30 05:38:00,
2013-01-29 23:43:00,54.0,53.5,29.54,NW,315,11.0,13.0,98,0.66,,---,0.66,VWS V14.00,2013-01-30 05:43:00,
2013-01-29 23:48:00,54.0,53.7,29.53,North,0,8.0,12.0,99,0.61,,---,0.68,VWS V14.00,2013-01-30 05:48:00,
2013-01-29 23:53:00,54.0,53.7,29.52,West,270,8.0,13.0,99,0.52,,---,0.72,VWS V14.00,2013-01-30 05:53:00,
2013-01-29 23:58:00,54.0,53.7,29.53,NNW,338,10.0,11.0,99,0.47,,---,0.03,VWS V14.00,2013-01-30 05:58:00,